Regional Weather Roundup
Issued by NWS

Home | Current Version | Previous Version | Graphics & Text | Print | Product List | Glossary On
Versions: 1 2 3 4 5 6 7 8 9 10 11 12 13 14 15 16 17 18 19 20 21 22 23 24 25 26 27 28 29 30 31 32 33 34 35 36 37 38 39 40 41 42 43 44 45 46 47 48 49 50
000
ASUS43 KIND 052159
RWRIN

WEATHER ROUNDUP FOR INDIANA
NATIONAL WEATHER SERVICE INDIANAPOLIS IN
500 PM EST FRI FEB 05 2016

NOTE: "FAIR" INDICATES FEW OR NO CLOUDS BELOW 12,000 FEET WITH NO
SIGNIFICANT WEATHER AND/OR OBSTRUCTIONS TO VISIBILITY.

* - STATION DOES NOT REPORT WEATHER SUCH AS PRECIPITATION OR FOG.

+ - STATION NOT QUALITY CONTROLLED BY THE NATIONAL WEATHER SERVICE.
    USE DATA WITH CAUTION...ESPECIALLY DEWPOINT AND RELATIVE
    HUMIDITY OBSERVATIONS.

INZ001>003-010>013-019-020-052300-
NORTHWEST INDIANA

CITY           SKY/WX    TMP DP  RH WIND       PRES   REMARKS
GARY /AIRPORT/ CLOUDY    34  23  64 W8        30.36R WCI  27
RENSSELAER +   CLOUDY    32  23  69 W9        30.36S WCI  24

$$

LMZ046-743>745-052300-
SOUTHERN LAKE MICHIGAN

STATION/POSITION TIME  TEMP    WIND        PRES    WAVE
                       AIR SEA DIR/SP/G            HT
                 (UTC) (F)     (DEG/KT/KT) (MB)    (FT)
BURNS HARBOR     2100   30     350/  9/ 10 1028.1R
MICHIGAN CITY    2100   30     310/ 14/ 15   N/A

$$

INZ004-005-014>016-021>024-052300-
NORTH CENTRAL INDIANA

CITY           SKY/WX    TMP DP  RH WIND       PRES   REMARKS
ELKHART        FLURRIES  30  27  86 NW10G16   30.32R WCI  21
GOSHEN         LGT SNOW  32  25  75 SW12      30.31R WCI  23
SOUTH BEND     MIX PCPN  29  25  85 NW13      30.34R WCI  19

$$

INZ006>009-017-018-025>027-052300-
NORTHEAST INDIANA

CITY           SKY/WX    TMP DP  RH WIND       PRES   REMARKS
ANGOLA *+      CLOUDY    32  25  74 W6        30.29R WCI  26
FORT WAYNE     CLOUDY    32  24  72 W15       30.33R WCI  22

$$

INZ028-029-035-036-043>045-051>053-052300-
WEST CENTRAL INDIANA

CITY           SKY/WX    TMP DP  RH WIND       PRES   REMARKS
GREENCASTLE +  SUNNY     34  16  47 W6        30.36R WCI  29
LAFAYETTE      CLOUDY    30  22  72 W9        30.37R WCI  22
TERRE HAUTE    SUNNY     35  24  64 NW9       30.39R WCI  28

$$

INZ030>032-037>040-046>048-054>057-064-065-052300-
CENTRAL INDIANA

CITY           SKY/WX    TMP DP  RH WIND       PRES   REMARKS
COLUMBUS       SUNNY     43  21  42 W15       30.33R
INDIANAPOLIS   PTSUNNY   38  24  57 NW10      30.33R
-EAGLE CREEK   CLOUDY    36  24  62 NW10      30.34R
KOKOMO *+        N/A     30  23  74 W12       30.35R WCI  21
MT COMFORT *+  MOSUNNY   37  27  65 NW12      30.33R
SHELBYVILLE    CLOUDY    42  24  49 W10       30.32R

$$

INZ033-034-041-042-049-050-058-059-052300-
EAST CENTRAL INDIANA

CITY           SKY/WX    TMP DP  RH WIND       PRES   REMARKS
MUNCIE         CLOUDY    35  26  69 NW14      30.32R WCI  26

$$

INZ060-061-067>069-081>083-085>088-052300-
SOUTHWEST INDIANA

CITY           SKY/WX    TMP DP  RH WIND       PRES   REMARKS
EVANSVILLE     SUNNY     47  21  35 W7        30.38R
HUNTINGBURG *+ SUNNY     45  25  45 SW10      30.37S

$$

INZ062-063-066-070>080-084-089>092-052300-
SOUTH CENTRAL AND SOUTHEAST INDIANA

CITY           SKY/WX    TMP DP  RH WIND       PRES   REMARKS
BLOOMINGTON    CLOUDY    41  23  48 SW12      30.33S
MADISON *+     CLOUDY    43  19  39 SW7       30.36S
SEYMOUR +      MOSUNNY   45  25  45 SW12      30.34S

$$




USA.gov is the U.S. government's official web portal to all federal, state and local government web resources and services.